Wind_Speed
14 13 13 12 11 11 11 11 12 12 13 15 15 17 19 23 24 19 8 16 14 17 23 23 19 13 13 10 12 11 3 3 4 7 4 3 5 3 4 12 6 5 10 25 31
14 14 14 13 12 11 11 11 11 12 13 14 14 15 18 22 23 16 26 22 21 19 20 11 12 10 5 6 6 5 5 8 6 5 5 3 7 5 3 8 6 12 19 29 32
15 15 15 14 13 11 11 11 11 11 12 13 13 14 16 17 5 9 13 20 19 20 19 16 14 3 3 4 4 6 6 5 11 10 8 8 3 6 6 1 15 19 22 21 25
16 16 15 15 13 10 10 11 11 10 11 12 12 14 16 4 3 4 7 15 16 15 15 11 5 7 6 5 5 7 8 6 10 11 5 7 7 5 5 5 16 20 23 18 17
17 16 16 16 14 10 10 10 10 10 10 10 10 13 5 1 9 6 5 10 12 14 11 6 6 3 5 3 3 6 6 8 6 15 11 14 8 6 8 16 19 19 22 19 16
18 17 16 16 13 10 9 10 10 9 9 8 9 10 2 4 8 11 17 21 16 12 12 6 8 14 8 4 4 7 7 8 7 7 14 12 5 6 4 19 19 20 17 20 19
19 18 17 16 13 9 8 9 9 9 8 7 7 5 2 15 7 2 14 22 23 18 7 26 13 4 3 8 9 1 6 5 5 4 7 13 2 7 17 20 20 19 17 15 17
20 19 18 17 13 8 8 9 9 8 7 6 6 1 7 13 16 20 20 18 19 18 22 28 18 4 4 3 8 2 3 4 4 7 8 6 7 8 20 20 19 18 17 16 15
21 20 19 17 11 7 7 7 8 8 7 5 3 3 10 13 5 14 14 9 17 18 20 20 5 3 5 4 5 3 3 5 3 8 6 3 5 9 20 19 19 18 16 15 13
22 21 19 16 9 6 5 5 5 6 4 3 5 3 7 5 6 18 12 17 3 7 9 6 5 4 5 5 4 4 4 4 7 6 5 6 7 7 20 20 20 18 16 15 13
22 21 19 15 8 4 2 1 3 2 3 9 6 4 3 4 15 10 19 5 3 4 5 8 2 8 12 6 12 9 2 4 6 7 4 7 3 2 15 16 17 16 16 15 14
23 22 19 13 6 4 4 2 5 3 6 16 11 10 20 10 5 7 11 5 4 6 4 5 7 13 7 14 1 7 5 5 4 5 4 3 5 4 7 3 16 18 17 17 12
23 22 19 10 4 4 10 17 9 11 2 6 8 7 7 7 8 7 8 5 4 4 5 5 13 8 9 2 3 5 2 1 1 4 3 6 5 5 2 3 7 10 13 6 5
25 23 17 4 1 2 8 11 12 12 4 6 6 8 5 5 5 5 7 7 1 8 5 7 15 11 10 3 5 2 3 2 1 4 3 3 4 4 5 7 11 5 14 13 14
26 23 15 6 3 5 1 12 12 2 1 4 6 2 6 8 1 5 14 4 9 11 6 8 3 6 4 6 5 7 4 0 1 1 3 4 5 7 3 4 9 8 15 16 17
29 22 12 5 11 14 19 17 7 5 5 4 7 6 5 4 4 2 9 1 0 3 7 11 7 3 8 3 3 2 3 8 5 4 2 4 5 5 5 6 10 6 10 10 12
30 19 9 12 5 1 18 3 4 3 5 5 7 4 6 6 4 8 6 5 6 1 5 6 6 4 2 3 7 9 7 4 5 5 4 6 5 6 8 7 5 10 12 10 10
24 11 8 23 16 14 10 5 3 5 6 3 6 7 7 5 6 8 8 6 6 4 3 2 8 6 3 7 8 4 7 5 3 2 3 7 6 6 3 11 8 9 7 3 7
9 2 5 16 16 9 5 2 6 6 4 3 5 5 4 5 6 3 9 8 8 10 8 3 6 6 7 5 10 4 2 8 4 2 5 3 5 6 9 11 10 8 11 3 7
4 2 6 9 11 6 4 5 5 5 3 3 8 7 8 6 5 7 8 9 9 11 5 4 2 3 5 4 2 6 4 2 3 3 2 4 4 5 3 5 9 14 10 12 13
4 2 4 18 15 5 3 7 7 9 2 7 5 6 9 7 11 9 12 7 17 8 10 5 3 7 4 4 3 5 4 5 4 4 5 4 6 7 10 10 11 12 18 18 14
6 2 13 30 3 2 3 6 6 13 18 8 8 8 8 8 7 7 9 9 7 7 7 5 5 1 2 3 6 5 5 6 5 6 1 3 4 5 10 11 11 19 15 7 1
3 3 16 14 3 3 6 10 9 14 10 7 3 3 4 9 6 3 4 6 8 5 6 3 2 3 9 8 4 8 4 4 5 3 0 4 5 1 8 7 6 7 6 4 7
1 2 3 3 2 5 4 10 5 9 9 1 3 5 8 5 1 6 4 4 4 6 7 9 4 7 6 7 3 4 4 5 6 4 4 1 3 8 8 9 7 4 7 7 6
2 4 2 2 5 8 3 7 13 8 5 2 5 5 3 4 7 4 4 6 8 5 5 5 4 3 1 4 4 2 2 7 5 3 4 4 9 2 5 8 7 8 7 7 6
1 3 5 3 4 6 6 6 7 12 3 6 2 7 6 2 8 6 10 5 1 3 4 4 1 3 5 3 3 3 7 3 4 4 5 8 6 2 2 5 9 7 8 5 5
6 6 3 4 6 3 3 7 12 4 7 4 4 7 11 6 5 8 7 4 4 4 3 4 4 3 2 2 5 6 9 13 9 9 7 6 2 2 9 13 11 11 8 7 6
Wind_Direction
338 330 322 307 289 283 283 288 294 301 306 312 317 320 324 324 318 317 258 251 267 300 304 307 311 324 306 175 184 177 186 226 224 153 219 208 123 120 322 140 164 205 144 156 153
338 332 323 314 296 278 279 282 289 298 304 310 316 317 324 328 324 288 257 261 266 284 298 326 316 341 320 286 158 134 149 213 165 151 190 107 84 96 43 137 94 102 133 148 153
338 332 326 316 301 278 271 276 283 291 297 305 313 316 323 324 324 249 251 243 261 273 281 296 293 323 254 225 231 162 160 192 153 190 144 116 98 133 106 110 145 139 147 156 157
338 334 327 318 304 280 267 269 275 283 293 304 312 320 323 321 263 283 244 257 264 264 284 302 354 339 315 342 179 99 162 140 146 174 138 155 136 132 151 206 153 146 154 155 167
338 334 329 321 307 282 263 264 270 277 289 301 313 328 332 302 249 237 241 264 263 267 269 275 300 323 265 251 103 126 176 159 179 174 148 140 167 159 128 141 143 150 149 168 170
337 334 329 321 309 283 259 258 265 272 284 299 314 333 351 269 271 290 288 285 265 270 277 251 245 274 260 345 287 185 168 174 207 204 155 152 186 164 169 151 154 159 166 165 183
338 335 331 325 312 283 254 254 261 268 277 292 310 342 274 239 229 254 302 287 274 267 258 276 273 315 0 338 332 251 128 216 232 205 129 127 190 188 157 156 163 169 173 180 183
339 336 332 326 312 281 253 251 258 266 273 286 303 323 249 264 287 277 285 292 286 269 266 276 293 276 95 291 349 165 61 130 249 178 164 119 232 175 164 163 175 175 179 184 197
339 336 333 327 313 274 250 251 264 269 272 277 294 184 268 300 259 250 273 271 300 293 286 294 351 262 15 70 354 344 229 185 206 198 167 122 227 166 173 175 176 178 185 190 196
339 336 333 328 313 271 250 258 283 293 271 240 265 343 271 243 225 243 245 263 274 333 340 356 28 13 342 78 244 259 229 241 172 227 175 188 218 165 180 182 178 181 188 192 195
338 336 332 328 310 274 177 233 24 342 215 199 199 233 274 330 299 258 233 268 342 24 277 310 36 253 255 215 245 222 205 295 195 214 126 221 271 340 184 191 177 184 188 195 196
337 336 332 324 302 248 194 194 194 109 292 229 240 262 280 276 319 255 214 159 146 243 358 355 271 256 256 273 275 20 18 8 23 165 151 193 281 351 31 106 184 181 188 197 185
339 336 331 321 293 235 227 232 172 349 250 283 199 215 241 139 213 240 136 183 212 255 270 176 259 290 256 324 17 355 122 356 214 354 10 96 350 354 353 65 72 182 190 187 71
341 336 329 316 253 215 248 256 272 270 49 269 188 257 219 188 289 225 199 152 269 226 245 240 260 239 259 189 111 25 279 132 86 66 228 65 258 319 310 343 84 141 147 118 109
339 333 322 229 265 221 275 6 4 124 33 192 198 202 199 151 198 235 214 83 226 235 109 246 296 309 235 205 146 218 238 141 277 354 34 340 81 265 69 14 89 93 124 141 153
335 328 316 245 242 257 318 328 119 51 256 186 146 199 159 189 241 13 180 44 173 275 274 265 258 253 209 194 176 347 10 24 42 94 40 234 118 285 27 319 61 82 130 171 175
331 317 272 192 212 344 335 63 53 154 295 169 169 155 175 207 217 176 176 186 197 157 284 307 290 276 207 46 355 68 56 353 347 10 230 299 76 224 35 70 69 40 355 179 238
328 295 253 230 231 288 351 62 200 244 241 223 141 160 183 151 243 186 134 202 254 122 51 214 316 191 204 169 190 200 148 149 253 217 227 11 346 301 101 68 46 52 4 33 314
332 282 249 238 235 258 60 109 216 219 279 122 84 136 246 212 158 139 174 207 224 171 176 165 274 301 167 169 132 271 208 188 147 72 86 270 278 309 19 38 27 81 52 254 241
342 268 251 207 181 118 76 224 242 224 338 192 185 168 205 197 156 154 182 220 235 202 148 236 315 311 282 111 184 159 185 30 18 178 100 280 285 231 112 133 61 8 28 311 264
336 25 237 168 141 58 189 238 271 261 276 189 243 167 209 179 177 191 197 258 210 235 155 154 119 298 20 18 227 350 21 24 108 110 154 179 254 214 186 167 133 139 219 237 243
336 12 159 153 82 176 190 228 292 295 306 268 188 189 170 205 176 175 207 224 195 148 139 193 134 129 216 267 127 145 108 112 107 301 181 160 279 255 212 175 186 198 214 216 180
337 273 167 161 153 251 269 266 269 285 287 283 256 136 196 186 156 167 130 343 122 101 146 175 24 41 351 350 13 75 65 144 126 90 108 131 265 25 45 26 71 94 112 152 105
336 16 336 39 166 162 291 289 291 311 289 246 327 59 7 52 23 164 126 66 38 87 95 81 86 140 172 217 216 4 61 66 97 75 289 298 52 26 88 71 62 83 131 125 131
171 256 223 251 284 257 140 302 305 306 294 43 19 22 42 39 47 39 55 59 24 38 59 95 96 87 235 83 84 221 352 61 86 189 113 302 101 116 133 131 128 108 114 117 135
1 34 345 285 257 237 188 248 246 285 255 300 119 12 60 133 145 106 99 83 94 19 71 3 135 111 53 77 144 34 345 11 66 149 81 114 74 295 166 97 49 50 87 116 183
325 335 106 281 323 58 223 274 283 337 311 310 119 93 60 352 152 152 133 155 151 151 101 78 104 68 336 336 67 28 343 78 63 34 118 102 129 49 62 67 54 57 49 43 46
Height
795 792 791 788 787 786 786 784 783 782 780 779 776 774 771 768 764 761 756 748 742 746 745 744 743 744 741 745 746 749 787 801 788 782 773 751 759 759 756 761 759 759 766 774 782
793 791 789 787 785 784 783 782 781 780 779 777 776 774 772 769 763 756 746 745 742 744 744 744 742 740 745 737 738 757 788 777 755 762 762 755 754 762 767 765 771 766 770 778 783
792 789 787 784 782 781 781 780 779 778 778 777 776 774 772 769 767 748 743 741 740 744 744 744 741 744 749 738 736 746 772 749 752 747 743 755 758 756 770 777 767 773 775 778 783
791 788 785 782 779 778 778 778 778 777 777 776 774 773 770 769 781 741 740 739 740 742 743 742 742 754 753 750 730 752 739 738 747 744 747 753 752 762 762 766 759 763 770 778 783
789 786 783 780 777 776 776 776 776 776 775 775 773 772 769 770 757 740 739 739 740 741 742 742 747 750 755 742 735 746 740 734 732 738 744 746 757 758 758 755 758 763 770 777 780
787 784 781 778 775 774 773 774 774 774 774 773 772 771 770 776 741 740 740 739 739 740 739 738 741 737 744 741 746 733 736 736 734 736 745 754 759 752 755 754 759 760 766 771 775
785 782 778 776 773 772 771 772 772 773 773 772 771 770 770 754 739 739 739 737 737 738 738 732 734 738 734 747 731 725 749 744 740 738 746 748 773 765 749 753 759 761 763 765 769
783 780 776 773 770 770 769 770 771 771 771 771 771 771 766 740 741 737 737 734 734 734 733 729 727 730 733 733 738 742 747 775 746 740 742 745 783 754 748 754 761 761 761 762 764
781 777 774 771 769 768 768 768 769 769 770 770 771 770 764 738 736 733 734 734 732 730 728 727 728 736 737 763 779 761 782 772 758 738 740 750 771 750 747 752 758 758 759 759 761
779 775 772 769 767 767 767 767 768 769 769 770 770 775 749 739 733 731 733 732 734 732 734 734 744 758 761 779 808 784 775 765 768 747 745 755 759 746 745 749 753 755 756 757 759
777 773 770 767 766 766 767 768 771 772 768 761 756 751 737 736 734 731 731 732 734 742 763 748 769 783 765 763 760 763 763 763 752 739 748 755 750 743 744 747 752 754 755 755 754
776 772 768 765 764 765 766 767 763 763 769 746 749 747 737 740 747 729 730 744 746 764 756 768 781 751 748 748 741 753 762 765 750 738 747 751 756 748 744 747 743 748 752 750 751
774 770 766 764 763 765 763 757 756 757 768 745 740 743 738 736 742 735 729 736 749 761 762 781 759 740 749 743 751 762 762 761 762 749 744 759 774 769 753 749 743 746 744 747 757
771 767 764 762 767 763 758 750 759 761 788 760 745 735 732 730 741 722 724 734 746 762 760 767 739 745 748 747 752 773 744 745 751 773 795 760 817 777 770 763 758 749 750 754 756
769 765 762 762 761 760 751 754 756 759 806 739 740 720 722 738 733 731 722 733 754 753 758 762 744 747 750 746 738 761 738 743 748 766 778 778 804 786 773 769 769 765 758 754 746
765 761 759 759 759 752 751 750 754 791 801 745 730 736 740 737 735 727 731 727 731 751 751 753 730 732 738 728 728 731 744 762 772 787 815 782 793 791 791 781 777 774 768 759 750
759 756 756 756 751 750 750 749 792 804 739 747 745 736 744 749 743 741 748 755 771 781 784 758 747 728 720 741 738 751 785 824 821 825 825 790 793 792 779 772 770 768 769 763 758
752 749 748 746 747 750 747 768 796 759 748 725 734 741 754 746 747 744 755 768 754 760 785 785 790 741 724 739 757 757 778 821 823 828 818 799 811 786 770 762 764 767 769 774 779
747 746 745 740 746 752 760 790 780 756 732 734 736 754 755 741 742 746 756 764 752 753 779 786 779 728 723 722 737 756 776 767 792 796 823 822 798 774 764 777 765 769 771 775 781
747 746 742 740 745 751 772 785 761 732 727 729 752 743 761 750 750 755 763 739 741 733 736 754 777 735 725 718 728 741 743 782 799 815 837 824 812 799 778 782 768 772 778 787 789
747 750 734 738 746 761 781 776 743 721 722 737 736 744 742 746 745 756 751 730 721 724 734 744 763 760 736 752 756 757 770 774 783 804 836 839 823 775 772 775 774 770 772 782 784
751 757 733 736 764 769 773 754 731 721 712 722 706 723 733 728 740 744 745 731 707 717 742 734 771 780 761 738 730 745 763 782 812 807 815 818 809 752 755 761 759 767 762 768 767
762 753 738 734 772 771 755 740 733 724 715 714 706 700 702 722 738 731 721 710 702 716 731 728 776 803 791 765 747 762 763 770 782 799 805 816 804 753 763 763 758 762 765 772 768
763 760 747 743 746 751 752 738 734 708 710 701 702 695 708 715 712 728 723 714 707 713 721 728 772 784 809 785 771 767 762 768 781 809 810 796 793 782 775 775 773 772 771 771 770
761 757 748 760 755 747 748 743 738 739 708 696 707 710 716 729 731 732 722 724 717 716 720 739 772 763 765 763 764 766 763 768 783 788 801 793 792 786 781 780 777 773 771 772 773
762 759 754 756 748 748 750 745 737 724 718 714 710 717 716 719 727 739 731 735 735 723 732 746 772 764 781 762 760 768 767 765 770 777 777 781 788 779 775 770 770 770 773 775 774
760 755 757 755 748 749 750 740 725 716 703 698 702 716 721 716 710 712 713 721 722 733 745 756 771 787 791 776 772 796 785 777 778 770 772 797 789 778 785 782 784 783 780 780 778